{"data":{"norad_id":57227,"epoch":"2026-05-24T21:42:56.880000Z","epoch_age_seconds":83247,"freshness":"FRESH","line1":"1 57227U 23094K   26144.90482500 -.00000219  00000+0  15818-5 0  9996","line2":"2 57227  43.0031 323.5262 0001687 264.6902  95.3757 15.27567468158731","mean_motion":15.27567468,"eccentricity":0.0001687,"inclination_deg":43.0031,"raan_deg":323.5262,"arg_perigee_deg":264.6902,"mean_anomaly_deg":95.3757,"bstar":1.5818e-6,"rev_number":15873,"period_min":94.267522067968,"perigee_km":481.9291331876,"apogee_km":484.24411003753,"semimajor_km":6861.2236216126,"source":"CELESTRAK","updated_at":"2026-05-25T13:38:18.253596Z"}}